SKYNET 4C

Last updated on Sun Sep 14 2025 00:02:46 GMT+0000 (Coordinated Universal Time)

1 20776U 90079A 25255.87920606 .00000121 00000+0 00000+0 0 9996 2 20776 13.4297 351.6916 0003258 192.0392 158.2905 1.00273906128105
UTC large
Height (km)
Speed (km/s)
/
Latitude / Longitude
Inclination (degrees)
Orbital Period (minutes)
Azimuth
Elevation
Range (km)
Doppler Factor

Next 0 passes for location: London (51.5072 / 0.1276)

Sorry there are no passes over London.